Regional Weather Roundup
Issued by NWS

Home | Current Version | Previous Version | Text Only | Print | Product List | Glossary Off
Versions: 1 2 3 4 5 6 7 8 9 10 11 12 13 14 15 16 17 18 19 20 21 22 23 24 25 26 27 28 29 30 31 32 33 34 35 36 37 38 39 40 41 42 43 44 45 46 47 48 49 50

000
ASUS43 KBIS 221820
RWRND

NORTH DAKOTA REGIONAL WEATHER ROUNDUP
NATIONAL WEATHER SERVICE BISMARCK ND
100 PM CDT FRI AUG 22 2014

NOTE: "FAIR" INDICATES FEW OR NO CLOUDS BELOW 12,000 FEET WITH NO
SIGNIFICANT WEATHER AND/OR OBSTRUCTIONS TO VISIBILITY.


NDZ001>003-009>011-017-221900-
NORTHWEST NORTH DAKOTA

CITY           SKY/WX    TMP DP  RH WIND       PRES   REMARKS
WILLISTON      CLOUDY    68  53  58 NE10      30.10S
6HR MIN TEMP:  60; 6HR MAX TEMP:  69;

MINOT          CLOUDY    64  58  80 N10       30.09S
MINOT AFB      CLOUDY    64  63  97 N12       30.09S
$$

NDZ018>021-031>035-040>046-221900-
SOUTHWEST NORTH DAKOTA

CITY           SKY/WX    TMP DP  RH WIND       PRES   REMARKS
BISMARCK       CLOUDY    76  64  66 E3        30.05R
6HR MIN TEMP:  65; 6HR MAX TEMP:  76; 6HR PCP:  0.01;

DICKINSON      LGT RAIN  64  61  90 NE12      30.06S FOG
GARRISON         N/A     66  61  84 NE9       30.07S
6HR MIN TEMP:  61; 6HR MAX TEMP:  66; 6HR PCP:  0.06;

HETTINGER ARPT CLOUDY    67  59  75 NE5       30.09S
$$

NDZ004>008-012>016-024-026-027-054-221900-
NORTHEAST NORTH DAKOTA

CITY           SKY/WX    TMP DP  RH WIND       PRES   REMARKS
GRAND FORKS    CLOUDY    68  64  87 NW13      30.02R
GRND FRKS AFB  CLOUDY    67  66  99 N9        30.03R
DEVILS LAKE    CLOUDY    66  57  72 N10       30.05R
$$

NDZ022-023-025-028>030-036>039-047>053-221900-
SOUTHEAST NORTH DAKOTA

CITY           SKY/WX    TMP DP  RH WIND       PRES   REMARKS
FARGO          CLOUDY    72  67  84 N10       30.00R
6HR MIN TEMP:  66; 6HR MAX TEMP:  73;

JAMESTOWN      CLOUDY    72  66  81 N9        30.04S
$$




USA.gov is the U.S. government's official web portal to all federal, state and local government web resources and services.